TimeCDT,TemperatureF,Dew PointF,Humidity,Sea Level PressureIn,VisibilityMPH,Wind Direction,Wind SpeedMPH,Gust SpeedMPH,PrecipitationIn,Events,Conditions,WindDirDegrees,DateUTC
12:53 AM,51.1,46.0,83,30.02,10.0,NE,18.4,27.6,0.01,,Mostly Cloudy,40,2013-03-31 05:53:00
1:53 AM,51.1,45.0,80,30.04,10.0,NNE,11.5,18.4,N/A,,Overcast,30,2013-03-31 06:53:00
2:53 AM,51.1,45.0,80,30.03,10.0,NNE,9.2,-,N/A,,Overcast,30,2013-03-31 07:53:00
3:53 AM,50.0,46.0,86,30.01,10.0,North,6.9,-,0.00,,Overcast,10,2013-03-31 08:53:00
4:53 AM,48.9,46.0,90,29.99,10.0,NNW,10.4,-,N/A,,Overcast,330,2013-03-31 09:53:00
5:53 AM,48.9,44.1,83,29.99,10.0,North,11.5,-,N/A,,Clear,350,2013-03-31 10:53:00
6:53 AM,46.9,43.0,86,30.01,10.0,North,10.4,-,N/A,,Clear,350,2013-03-31 11:53:00
7:53 AM,45.0,42.1,90,30.05,10.0,North,6.9,-,N/A,,Clear,360,2013-03-31 12:53:00
8:53 AM,48.0,43.0,83,30.07,10.0,North,9.2,-,N/A,,Clear,10,2013-03-31 13:53:00
9:53 AM,52.0,41.0,66,30.06,10.0,North,13.8,-,N/A,,Clear,360,2013-03-31 14:53:00
10:53 AM,55.0,39.0,55,30.05,10.0,North,10.4,-,N/A,,Clear,10,2013-03-31 15:53:00
11:53 AM,57.9,34.0,41,30.04,10.0,NNE,11.5,-,N/A,,Clear,20,2013-03-31 16:53:00
12:53 PM,61.0,30.9,32,30.04,10.0,ENE,4.6,-,N/A,,Clear,60,2013-03-31 17:53:00
1:53 PM,62.1,28.0,28,30.02,10.0,Variable,5.8,-,N/A,,Clear,0,2013-03-31 18:53:00
2:53 PM,64.0,28.0,26,29.99,10.0,Variable,6.9,-,N/A,,Clear,0,2013-03-31 19:53:00
3:53 PM,66.0,28.0,24,29.96,10.0,WNW,4.6,-,N/A,,Clear,300,2013-03-31 20:53:00
4:53 PM,66.0,28.0,24,29.94,10.0,Calm,Calm,-,N/A,,Clear,0,2013-03-31 21:53:00
5:53 PM,66.9,28.9,24,29.91,10.0,South,9.2,16.1,N/A,,Clear,180,2013-03-31 22:53:00
6:53 PM,66.0,30.0,26,29.90,10.0,South,10.4,-,N/A,,Clear,190,2013-03-31 23:53:00
7:53 PM,63.0,30.0,29,29.91,10.0,South,6.9,-,N/A,,Clear,170,2013-04-01 00:53:00
8:53 PM,55.9,32.0,40,29.90,10.0,SSE,8.1,-,N/A,,Clear,160,2013-04-01 01:53:00
9:53 PM,53.1,32.0,45,29.90,10.0,South,9.2,-,N/A,,Clear,170,2013-04-01 02:53:00
10:53 PM,50.0,32.0,50,29.91,10.0,SSE,5.8,-,N/A,,Clear,160,2013-04-01 03:53:00
11:53 PM,48.9,30.9,50,29.90,10.0,South,5.8,-,N/A,,Clear,170,2013-04-01 04:53:00